Location: Zihuatanejo
(17.6330°N, 101.5500°W)
Time: 15:16:56
(UTC-05:00)

Tiangong 2 - Pass Details

Date: 27 March 2019
Orbit: 378 x 389 km, 42.8° (Epoch: 22 April)

Event Time Altitude Azimuth Distance (km) Brightness Sun altitude
Exits shadow 07:21:20 - 269° (W) 1,528 3.4 -6.4°
Reaches altitude 10° 07:21:51 10° 262° (W) 1,392 3.2 -6.3°
Maximum altitude 07:23:42 15° 226° (SW) 1,151 3.0 -5.9°
Drops below altitude 10° 07:25:33 10° 190° (S) 1,395 3.8 -5.4°
Sets 07:28:16 0° 164° (SSE) 2,249 5.1 -4.8°
